Regional Weather Roundup
Issued by NWS

Home | Current Version | Previous Version | Text Only | Print | Product List | Glossary On
Versions: 1 2 3 4 5 6 7 8 9 10 11 12 13 14 15 16 17 18 19 20 21 22 23 24 25 26 27 28 29 30 31 32 33 34 35 36 37 38 39 40 41 42 43 44 45 46 47 48 49 50
000
ASUS45 KREV 301210
RWRNV
NEVADA REGIONAL WEATHER ROUNDUP
NATIONAL WEATHER SERVICE RENO NV
500 AM PDT THU MAR 30 2017

NOTE: "FAIR" INDICATES FEW OR NO CLOUDS BELOW 12,000 FEET WITH NO
SIGNIFICANT WEATHER AND/OR OBSTRUCTIONS TO VISIBILITY.

NVZ001-003-004-301300-
WESTERN NEVADA

CITY           SKY/WX    TMP DP  RH WIND       PRES   REMARKS
RENO           LGT RAIN  47  41  80 SE6       29.83F
6HR MIN TEMP:  47; 6HR MAX TEMP:  58; 6HR PCP:  0.04;

CARSON CITY    LGT RAIN  45  41  87 W3        29.89F
MINDEN         FAIR      45  41  87 SE9       29.89F
FALLON         LGT RAIN  51  42  71 SW13      29.84F
6HR MIN TEMP:  51; 6HR MAX TEMP:  57; 6HR PCP: TRACE;

LOVELOCK       MOCLDY    47  38  71 S8        29.81F
6HR MIN TEMP:  47; 6HR MAX TEMP:  57; 6HR PCP: TRACE;

HAWTHORNE      PTCLDY    57  25  28 SW12      29.85F
$$

NVZ002-CAZ072-073-301300-
NORTHERN AND CENTRAL SIERRA

CITY           SKY/WX    TMP DP  RH WIND       PRES   REMARKS
S. LAKE TAHOE  RAIN      40  37  89 S10G20    29.91F FOG
6HR MIN TEMP:  40; 6HR MAX TEMP:  46; 6HR PCP:  0.09;

TRUCKEE        RAIN      39  37  93 W6        29.89F
SQUAW VLY 8000   N/A     32  32 100 SW21        N/A
SUSANVILLE     MOCLDY    48  43  81 SW8       29.80F
MAMMOTH LAKES  FAIR      49  21  32 SW35G53   29.98F
6HR MIN TEMP:  44; 6HR MAX TEMP:  51;

BRIDGEPORT     LGT RAIN  40  34  79 W8        29.92F
$$

NVZ030-031-036-301300-
NORTHERN NEVADA

CITY           SKY/WX    TMP DP  RH WIND       PRES   REMARKS
ELKO           LGT RAIN  42  39  89 S7        29.83F
6HR MIN TEMP:  42; 6HR MAX TEMP:  51; 6HR PCP:  0.09;

WINNEMUCCA     MOCLDY    46  41  82 S12       29.78F
6HR MIN TEMP:  46; 6HR MAX TEMP:  51; 6HR PCP:  0.07;

WENDOVER       CLOUDY    46  38  73 N7        29.81F
$$

NVZ035-037-301300-
CENTRAL NEVADA

CITY           SKY/WX    TMP DP  RH WIND       PRES   REMARKS
ELY            CLOUDY    40  30  67 S13       29.90F
6HR MIN TEMP:  34; 6HR MAX TEMP:  43;

EUREKA           N/A     42  32  67 S8        29.86F
6HR MIN TEMP:  39; 6HR MAX TEMP:  46;

$$

NVZ013-014-301300-
SOUTH CENTRAL NEVADA

CITY           SKY/WX    TMP DP  RH WIND       PRES   REMARKS
TONOPAH        PTCLDY    38  50 100 N7        29.93F
6HR MIN TEMP:  38; 6HR MAX TEMP:  51;

$$

NVZ017-020-022-301300-
SOUTHERN NEVADA

CITY           SKY/WX    TMP DP  RH WIND       PRES   REMARKS
LAS VEGAS      MOCLDY    57  29  34 W6        29.84F
6HR MIN TEMP:  57; 6HR MAX TEMP:  65;

N. LAS VEGAS   CLEAR     55  32  41 NW6       29.85F
6HR MIN TEMP:  53; 6HR MAX TEMP:  63;

NELLIS AFB     CLEAR     54  27  35 N7        29.84F
6HR MIN TEMP:  52; 6HR MAX TEMP:  61;

HENDERSON      PTCLDY    59  25  27 SW13      29.87F
6HR MIN TEMP:  56; 6HR MAX TEMP:  61;

MERCURY        PTCLDY    48  27  44 N6        29.88F
6HR MIN TEMP:  47; 6HR MAX TEMP:  57;

$$



USA.gov is the U.S. government's official web portal to all federal, state and local government web resources and services.